[[{"header":{"parameterUnit":"m.s-1","parameterCategory":2,"la1":30.2992,"la2":30.254,"lo1":-89.0895,"lo2":-89.0443,"dy":0.0025,"dx":0.0025,"nx":19,"ny":19,"refTime":"2026-03-21T09:00:00:Z","depth":"0","parameterNumber":2,"parameterNumberName":"U-component_of_CURRENTS"},"data":[0,0,0,0.1152,0.1154,0.1215,0.1215,0.1285,0.1286,0,0,0,0,0,0,0,0,0,0,0,0.1153,0.1154,0.1152,0.1154,0.1215,0.1215,0.1285,0.1286,0,0,0,0,0,0,0,0,0,0,0,0.1153,0.1154,0.1155,0.1154,0.1215,0.1215,0.1285,0.1242,0,0,0,0,0,0,0,0,0,0,0.1184,0.1178,0.1154,0.1155,0.1154,0.1215,0.1215,0.124,0.1245,0.1253,0,0.128,0,0.1273,0.129,0.129,0,0,0,0.1159,0.1174,0.1193,0.1155,0.1155,0.1215,0.1189,0.1243,0.1248,0.1259,0.1281,0.1283,0.1274,0.129,0.1291,0.1438,0.1439,0,0,0.1156,0.1158,0.119,0.1197,0.1193,0.1187,0.1191,0.1246,0.1259,0.1281,0.1284,0.1275,0.1291,0.1291,0.1437,0.1438,0,0,0,0.1142,0.1156,0.1174,0.1195,0.12,0.1188,0.1193,0.1257,0.1265,0.1285,0.1276,0.1291,0.1292,0.1435,0.1437,0.1549,0,0,0,0.114,0.1147,0.1173,0.1174,0.12,0.1227,0.1203,0.1262,0.1267,0.1276,0.1291,0.1292,0.1434,0.1436,0.1543,0.1572,0,0,0,0.1147,0.1147,0.1162,0.1174,0.1196,0.1227,0.1238,0.1263,0.1261,0.129,0.1293,0.1433,0.1436,0.1538,0.1564,0.1703,0,0,0,0.1135,0.1196,0.1163,0.1219,0.1195,0.1272,0.1237,0.1283,0.1315,0.1291,0.1434,0.1437,0.1537,0.1559,0.1697,0.179,0.1826,0,0,0.1207,0.1205,0.1235,0.1207,0.1289,0.1262,0.1364,0.1376,0.1361,0.1413,0.1416,0.1545,0.1564,0.1702,0.1949,0.1981,0,0,0,0.1254,0.1278,0.1303,0.1329,0.1364,0.1421,0.1424,0.1455,0.1522,0.1391,0.157,0.1578,0.1662,0.1706,0.1732,0.1804,0.145,0.1449,0.1449,0.1317,0.1326,0.1387,0.1418,0.147,0.153,0.1601,0.1641,0.161,0.1668,0.169,0.1892,0.194,0.1961,0.2035,0.1722,0.1722,0.1723,0.1723,0.1383,0.1398,0.1429,0.1492,0.1549,0.1626,0.1752,0.1773,0.1918,0.183,0.1909,0.1844,0.1996,0.2064,0.1731,0.1729,0.1728,0.1728,0.1727,0.1373,0.1393,0.1424,0.1499,0.159,0.1676,0.1822,0.1915,0.2005,0.209,0.2169,0.2167,0.2212,0.2151,0.2152,0.2153,0.2153,0.2154,0.2154,0.1343,0.1389,0.1428,0.151,0.1563,0.1673,0.1868,0.2,0.2226,0.23,0.2301,0.231,0.2023,0.1989,0.2166,0.2164,0.2163,0.2161,0.2161,0.134,0.1353,0.1418,0.1464,0.1596,0.17,0.1875,0.2203,0.2383,0.2531,0.2653,0.2435,0.2414,0.2392,0.2367,0.2633,0.2633,0.2633,0.2633,0.132,0.1334,0.1416,0.1498,0.1607,0.1727,0.1944,0.2226,0.2641,0.2844,0.2889,0.2813,0.279,0.2784,0.2754,0.2733,0.3085,0.3086,0.3086,0.132,0.1345,0.1393,0.1485,0.1616,0.1752,0.1923,0.2163,0.2783,0.3107,0.2984,0.2964,0.2844,0.2803,0.2773,0.2724,0.268,0,0]},{"header":{"parameterUnit":"m.s-1","parameterCategory":2,"la1":30.2992,"la2":30.254,"lo1":-89.0895,"lo2":-89.0443,"dy":0.0025,"dx":0.0025,"nx":19,"ny":19,"refTime":"2026-03-21T09:00:00:Z","depth":"0","parameterNumber":3,"parameterNumberName":"V-component_of_CURRENTS"},"data":[0,0,0,0.0533,0.0532,0.0478,0.0478,0.0393,0.0392,0,0,0,0,0,0,0,0,0,0,0,0.0551,0.0551,0.0533,0.0532,0.0478,0.0478,0.0393,0.0392,0,0,0,0,0,0,0,0,0,0,0,0.0551,0.0551,0.0551,0.0532,0.0479,0.0478,0.0393,0.0435,0,0,0,0,0,0,0,0,0,0,0.0488,0.0511,0.0551,0.0551,0.0531,0.0479,0.0478,0.0437,0.0433,0.0416,0,0.0415,0,0.0406,0.0387,0.0387,0,0,0,0.0521,0.0515,0.0503,0.0551,0.0531,0.0479,0.0499,0.0435,0.0429,0.041,0.0413,0.041,0.0404,0.0387,0.0387,0.0414,0.0415,0,0,0.0524,0.0536,0.0507,0.05,0.0526,0.0501,0.0498,0.0432,0.0428,0.0413,0.0408,0.0403,0.0386,0.0386,0.0414,0.0415,0,0,0,0.054,0.0538,0.0527,0.0503,0.0497,0.05,0.0496,0.0431,0.0428,0.0407,0.0402,0.0386,0.0385,0.0413,0.0414,0.0533,0,0,0,0.0541,0.0548,0.0529,0.0535,0.0499,0.0466,0.0497,0.0433,0.0425,0.0402,0.0386,0.0384,0.0412,0.0413,0.0528,0.0599,0,0,0,0.0552,0.0549,0.0546,0.0536,0.0518,0.0467,0.046,0.0431,0.0422,0.0387,0.0384,0.0411,0.0413,0.0523,0.0591,0.0678,0,0,0,0.0561,0.0583,0.0547,0.0551,0.0518,0.0528,0.046,0.0449,0.0427,0.0386,0.0412,0.0414,0.0521,0.0585,0.0673,0.0768,0.0803,0,0,0.0601,0.0588,0.0587,0.0553,0.0589,0.0534,0.0579,0.0513,0.0454,0.0428,0.0428,0.0529,0.059,0.0677,0.0888,0.0919,0,0,0,0.0606,0.0618,0.0619,0.0617,0.0607,0.0641,0.0581,0.0571,0.0553,0.0452,0.0538,0.0573,0.0624,0.067,0.0695,0.0606,0.0424,0.0423,0.0423,0.0697,0.0671,0.0701,0.0692,0.0702,0.0711,0.0735,0.0713,0.0632,0.0655,0.0676,0.0835,0.0884,0.0904,0.0812,0.0672,0.0672,0.0673,0.0673,0.0773,0.0782,0.077,0.0793,0.0817,0.0853,0.0879,0.0856,0.0903,0.0804,0.0847,0.08,0.0939,0.083,0.0681,0.0679,0.0678,0.0678,0.0677,0.0829,0.0837,0.0838,0.0872,0.0931,0.0949,0.1057,0.1057,0.1023,0.1073,0.1105,0.1104,0.1003,0.1089,0.109,0.109,0.1091,0.1091,0.1092,0.0883,0.0894,0.0922,0.0953,0.0986,0.107,0.1165,0.1231,0.1298,0.1267,0.1267,0.1064,0.0962,0.094,0.1103,0.1101,0.11,0.1099,0.1098,0.0942,0.0934,0.0988,0.1017,0.1113,0.1245,0.1315,0.1499,0.1549,0.1607,0.138,0.1365,0.134,0.1319,0.1305,0.1554,0.1554,0.1554,0.1554,0.097,0.0971,0.1041,0.1116,0.1228,0.1336,0.1574,0.1719,0.1691,0.1632,0.1516,0.1418,0.1403,0.1373,0.135,0.1333,0.1583,0.1583,0.1582,0.0999,0.1016,0.1075,0.1151,0.1279,0.1461,0.1699,0.1888,0.1773,0.1567,0.1379,0.1378,0.1207,0.1191,0.1113,0.1089,0.1048,0,0]}],[{"header":{"parameterUnit":"m.s-1","parameterCategory":2,"la1":30.2992,"la2":30.254,"lo1":-89.0895,"lo2":-89.0443,"dy":0.0025,"dx":0.0025,"nx":19,"ny":19,"refTime":"2026-03-21T09:00:00:Z","depth":"2","parameterNumber":2,"parameterNumberName":"U-component_of_CURRENTS"},"data":[0,0,0,-0.0574,-0.0571,-0.0434,-0.0433,-0.0267,-0.0266,0,0,0,0,0,0,0,0,0,0,0,-0.0615,-0.0614,-0.0574,-0.0571,-0.0434,-0.0433,-0.0267,-0.0266,0,0,0,0,0,0,0,0,0,0,0,-0.0615,-0.0614,-0.0613,-0.0571,-0.0434,-0.0433,-0.0268,-0.0367,0,0,0,0,0,0,0,0,0,0,-0.0498,-0.0543,-0.0614,-0.0613,-0.057,-0.0434,-0.0433,-0.0371,-0.036,-0.0335,0,-0.0311,0,-0.0291,-0.0256,-0.0255,0,0,0,-0.0561,-0.0552,-0.0512,-0.0613,-0.0569,-0.0435,-0.0493,-0.0365,-0.0353,-0.0321,-0.0309,-0.0302,-0.0289,-0.0255,-0.0254,-0.0083,-0.0083,0,0,-0.0569,-0.0591,-0.052,-0.0504,-0.0529,-0.0498,-0.0489,-0.0357,-0.0345,-0.0308,-0.0298,-0.0286,-0.0254,-0.0253,-0.0084,-0.0083,0,0,0,-0.0597,-0.0597,-0.0559,-0.0511,-0.0489,-0.0494,-0.0484,-0.0351,-0.0337,-0.0297,-0.0284,-0.0253,-0.0251,-0.0085,-0.0084,-0.005,0,0,0,-0.0601,-0.0614,-0.0563,-0.0575,-0.0491,-0.0419,-0.0481,-0.0346,-0.0331,-0.0285,-0.0253,-0.025,-0.0086,-0.0084,-0.0053,-0.0027,0,0,0,-0.0622,-0.0616,-0.0599,-0.0576,-0.0522,-0.042,-0.0399,-0.0342,-0.0324,-0.0255,-0.0249,-0.0086,-0.0084,-0.0055,-0.0031,0.0062,0,0,0,-0.0652,-0.0604,-0.0599,-0.0539,-0.0523,-0.0413,-0.0399,-0.0307,-0.0244,-0.0252,-0.0085,-0.0084,-0.0056,-0.0033,0.0059,0.0059,0.0076,0,0,-0.0607,-0.06,-0.0563,-0.0555,-0.0452,-0.0432,-0.032,-0.0236,-0.0211,-0.013,-0.0125,-0.0052,-0.0031,0.0061,0.0162,0.0176,0,0,0,-0.0559,-0.0526,-0.0495,-0.0436,-0.0372,-0.0297,-0.0226,-0.0195,-0.0104,-0.0168,-0.0024,-0.0012,0.0045,0.0038,0.005,-0.0075,-0.0075,-0.0076,-0.0076,-0.052,-0.0482,-0.0409,-0.0345,-0.0279,-0.0188,-0.0126,-0.0067,-0.0053,-0.0008,0.0035,0.0156,0.0148,0.0157,0.0052,0.0052,0.0052,0.0053,0.0053,-0.0447,-0.0409,-0.0351,-0.0267,-0.0199,-0.0108,-0.0013,0.0012,0.0129,0.0091,0.0146,0.0098,0.0171,0.0056,0.0055,0.0055,0.0055,0.0054,0.0054,-0.0433,-0.0411,-0.0357,-0.0253,-0.0154,-0.0065,0.0048,0.0118,0.0179,0.0235,0.028,0.0279,0.0188,0.029,0.029,0.0291,0.0291,0.0292,0.0292,-0.0459,-0.04,-0.0343,-0.0241,-0.018,-0.0075,0.0095,0.0176,0.0305,0.0342,0.0342,0.0237,0.0229,0.0204,0.03,0.0299,0.0298,0.0297,0.0297,-0.0449,-0.0438,-0.0356,-0.0299,-0.0168,-0.0074,0.0075,0.028,0.0394,0.0453,0.0409,0.0404,0.0406,0.0395,0.0376,0.0511,0.0511,0.0511,0.0511,-0.047,-0.0451,-0.0358,-0.0281,-0.0189,-0.0072,0.0126,0.0317,0.0455,0.05,0.05,0.0417,0.0409,0.0406,0.0395,0.0373,0.0508,0.0508,0.0508,-0.0472,-0.0446,-0.0386,-0.0299,-0.0195,-0.0071,0.0143,0.0418,0.0544,0.0505,0.0475,0.0516,0.039,0.0379,0.0366,0.0352,0.0313,0,0]},{"header":{"parameterUnit":"m.s-1","parameterCategory":2,"la1":30.2992,"la2":30.254,"lo1":-89.0895,"lo2":-89.0443,"dy":0.0025,"dx":0.0025,"nx":19,"ny":19,"refTime":"2026-03-21T09:00:00:Z","depth":"2","parameterNumber":3,"parameterNumberName":"V-component_of_CURRENTS"},"data":[0,0,0,-0.0365,-0.0362,-0.0211,-0.021,-0.0028,-0.0027,0,0,0,0,0,0,0,0,0,0,0,-0.0408,-0.0407,-0.0365,-0.0362,-0.0211,-0.021,-0.0028,-0.0027,0,0,0,0,0,0,0,0,0,0,0,-0.0408,-0.0407,-0.0405,-0.0361,-0.0211,-0.021,-0.0029,-0.0137,0,0,0,0,0,0,0,0,0,0,-0.0281,-0.0318,-0.0407,-0.0405,-0.036,-0.0211,-0.021,-0.0142,-0.013,-0.0103,0,-0.0076,0,-0.0056,-0.0016,-0.0015,0,0,0,-0.035,-0.0328,-0.0295,-0.0405,-0.0359,-0.0212,-0.0276,-0.0135,-0.0122,-0.0088,-0.0073,-0.0067,-0.0053,-0.0015,-0.0014,0.009,0.009,0,0,-0.0358,-0.0371,-0.0305,-0.0287,-0.0315,-0.0281,-0.0271,-0.0127,-0.0106,-0.0073,-0.0062,-0.005,-0.0014,-0.0012,0.009,0.009,0,0,0,-0.039,-0.0377,-0.0347,-0.0295,-0.0271,-0.0276,-0.0266,-0.0112,-0.0104,-0.006,-0.0047,-0.0013,-0.0011,0.009,0.009,0.0055,0,0,0,-0.0394,-0.0396,-0.0351,-0.0356,-0.0274,-0.0187,-0.0254,-0.0114,-0.0097,-0.0048,-0.0013,-0.0009,0.009,0.009,0.0057,0.0064,0,0,0,-0.0415,-0.0399,-0.0382,-0.0357,-0.0299,-0.0189,-0.0172,-0.011,-0.009,-0.0015,-0.0009,0.009,0.009,0.0058,0.0065,0.0026,0,0,0,-0.0434,-0.0395,-0.0381,-0.0325,-0.0301,-0.022,-0.0172,-0.0091,-0.0027,-0.0012,0.009,0.009,0.0058,0.0066,0.0027,-0.0064,-0.0077,0,0,-0.04,-0.039,-0.0358,-0.0343,-0.026,-0.024,-0.0167,-0.0063,-0.0025,0.0045,0.0048,0.0056,0.0065,0.0026,-0.0075,-0.0088,0,0,0,-0.0357,-0.0326,-0.03,-0.0243,-0.0198,-0.0155,-0.008,-0.007,-0.0006,0.0009,0.0062,0.007,0.0046,-0.0007,-0.0017,0.0089,0.0089,0.0089,0.0089,-0.0318,-0.0287,-0.0224,-0.0178,-0.0135,-0.0087,-0.007,-0.0041,-0.0002,0.0002,0.0045,0.0001,-0.0055,-0.0064,0.0037,0.0037,0.0037,0.0037,0.0037,-0.0256,-0.0217,-0.0175,-0.0103,-0.0075,-0.0022,-0.0025,-0.0023,-0.0026,0.0007,-0.0016,-0.0035,-0.0077,0.0034,0.0035,0.0035,0.0035,0.0035,0.0036,-0.0232,-0.0212,-0.016,-0.0073,-0.0014,0.0018,0.0013,0.0005,-0.0027,-0.0049,-0.0106,-0.0107,-0.0023,-0.0059,-0.006,-0.006,-0.006,-0.006,-0.006,-0.0236,-0.0187,-0.0125,-0.0042,-0.0002,0.0035,0.0038,-0.0006,-0.0093,-0.0135,-0.0136,-0.0031,-0.0028,-0.0028,-0.0062,-0.0062,-0.0062,-0.0061,-0.0061,-0.0199,-0.0186,-0.0109,-0.0062,0.0001,-0.0009,-0.0004,-0.0113,-0.0166,-0.0244,-0.0207,-0.0203,-0.02,-0.0193,-0.0197,-0.0272,-0.0272,-0.0272,-0.0272,-0.0194,-0.0176,-0.0095,-0.0056,-0.0049,-0.0041,-0.0103,-0.0147,-0.0239,-0.0286,-0.0284,-0.0278,-0.0271,-0.027,-0.026,-0.0264,-0.0357,-0.0357,-0.0357,-0.017,-0.0154,-0.0106,-0.0069,-0.0075,-0.0106,-0.0127,-0.0091,-0.0216,-0.0351,-0.0206,-0.0296,-0.0285,-0.0274,-0.0268,-0.0255,-0.0259,0,0]}],[{"header":{"parameterUnit":"m.s-1","parameterCategory":2,"la1":30.2992,"la2":30.254,"lo1":-89.0895,"lo2":-89.0443,"dy":0.0025,"dx":0.0025,"nx":19,"ny":19,"refTime":"2026-03-21T09:00:00:Z","depth":"4","parameterNumber":2,"parameterNumberName":"U-component_of_CURRENTS"},"data":[0,0,0,-0.0008,-0.0008,-0.0015,-0.0015,-0.0029,-0.0029,0,0,0,0,0,0,0,0,0,0,0,-0.0004,-0.0004,-0.0008,-0.0008,-0.0015,-0.0015,-0.0028,-0.0029,0,0,0,0,0,0,0,0,0,0,0,-0.0004,-0.0004,-0.0005,-0.0008,-0.0015,-0.0015,-0.0028,-0.002,0,0,0,0,0,0,0,0,0,0,-0.0012,-0.0011,-0.0004,-0.0005,-0.0009,-0.0015,-0.0015,-0.0019,-0.0021,-0.003,0,-0.0037,0,-0.0038,-0.0031,-0.0031,0,0,0,0.0001,-0.001,-0.0014,-0.0005,-0.0009,-0.0015,-0.0009,-0.002,-0.0021,-0.0031,-0.0037,-0.0037,-0.0038,-0.0031,-0.0031,-0.0044,-0.0044,0,0,0.0001,-0.0001,-0.0013,-0.0015,-0.0019,-0.0009,-0.001,-0.002,-0.0024,-0.0037,-0.0038,-0.0039,-0.0031,-0.0031,-0.0044,-0.0044,0,0,0,-0.0004,-0.0001,-0.0005,-0.0015,-0.0019,-0.001,-0.001,-0.0023,-0.0026,-0.0038,-0.0039,-0.0031,-0.0031,-0.0044,-0.0044,-0.0026,0,0,0,-0.0003,-0.0005,-0.0005,-0.0006,-0.0018,-0.0021,-0.0013,-0.0025,-0.0026,-0.0039,-0.0031,-0.0032,-0.0044,-0.0044,-0.0026,-0.002,0,0,0,-0.0002,-0.0005,-0.0008,-0.0006,-0.0013,-0.002,-0.0023,-0.0025,-0.0027,-0.0031,-0.0032,-0.0044,-0.0044,-0.0027,-0.0021,-0.0007,0,0,0,0.0,-0.001,-0.0008,-0.0024,-0.0014,-0.0015,-0.0023,-0.0023,-0.0025,-0.0031,-0.0044,-0.0044,-0.0027,-0.0022,-0.0007,0.0013,0,0,0,-0.0011,-0.0012,-0.0021,-0.002,-0.0023,-0.0013,-0.0008,-0.0016,-0.0026,-0.004,-0.004,-0.0026,-0.0021,-0.0007,0.0021,0,0,0,0,-0.0023,-0.0025,-0.0028,-0.0031,-0.0031,-0.0011,-0.0013,-0.0016,-0.0021,-0.0029,-0.0028,-0.0026,-0.0017,-0.0008,-0.0044,-0.0044,-0.0044,-0.0044,-0.0044,-0.0032,-0.0033,-0.0035,-0.0027,-0.0024,-0.0011,-0.0002,-0.0005,-0.0016,-0.0015,-0.0012,0.0009,0.0019,-0.0013,-0.0013,-0.0013,-0.0013,-0.0013,-0.0013,-0.0034,-0.0033,-0.0026,-0.0023,-0.0007,0.0002,0.0009,0.0008,0.0012,-0.0001,0.0007,0.0009,-0.0011,-0.0012,-0.0012,-0.0012,-0.0012,-0.0012,-0.0012,-0.0029,-0.0026,-0.0022,-0.0012,0.0001,0.0013,0.0024,0.0027,0.0027,0.0035,0.005,0.0022,0.0022,0.0044,0.0044,0.0044,0.0044,0.0044,0.0044,-0.0024,-0.0018,-0.0012,-0.0002,0.0002,0.0013,0.0032,0.0047,0.0059,0.0071,0.0044,0.0028,0.0026,0.0025,0.0046,0.0046,0.0045,0.0045,0.0045,-0.0022,-0.0019,-0.001,-0.0006,0.0004,0.0011,0.0028,0.0082,0.0102,0.0126,0.0091,0.0088,0.0084,0.0081,0.0082,0.012,0.012,0.012,0,-0.0024,-0.0021,-0.0012,-0.0005,0.0005,0.001,0.0053,0.0084,0.011,0.0103,0.0087,0.0044,0.0043,0.0033,0.0031,0.003,0,0,0,-0.0029,-0.0025,-0.0018,-0.0005,0.0005,0.0042,0.0065,0.0089,0.0097,0.0153,0.0129,0.0127,0.0084,0.005,0.0037,0.0034,0.0033,0,0]},{"header":{"parameterUnit":"m.s-1","parameterCategory":2,"la1":30.2992,"la2":30.254,"lo1":-89.0895,"lo2":-89.0443,"dy":0.0025,"dx":0.0025,"nx":19,"ny":19,"refTime":"2026-03-21T09:00:00:Z","depth":"4","parameterNumber":3,"parameterNumberName":"V-component_of_CURRENTS"},"data":[0,0,0,-0.0422,-0.0422,-0.0461,-0.0461,-0.0534,-0.0534,0,0,0,0,0,0,0,0,0,0,0,-0.0414,-0.0414,-0.0422,-0.0422,-0.0461,-0.0461,-0.0534,-0.0534,0,0,0,0,0,0,0,0,0,0,0,-0.0414,-0.0414,-0.0415,-0.0423,-0.0461,-0.0461,-0.0533,-0.05,0,0,0,0,0,0,0,0,0,0,-0.0461,-0.045,-0.0414,-0.0415,-0.0423,-0.0461,-0.0461,-0.0498,-0.0502,-0.0521,0,-0.0528,0,-0.0529,-0.0539,-0.0539,0,0,0,-0.0429,-0.0447,-0.0453,-0.0415,-0.0423,-0.046,-0.0445,-0.05,-0.0505,-0.0527,-0.0529,-0.0531,-0.053,-0.054,-0.054,-0.0629,-0.0629,0,0,-0.0426,-0.0427,-0.045,-0.0456,-0.0435,-0.0444,-0.0446,-0.0503,-0.0511,-0.0529,-0.0533,-0.0531,-0.054,-0.0541,-0.0629,-0.0629,0,0,0,-0.0416,-0.0425,-0.043,-0.0453,-0.0456,-0.0445,-0.0448,-0.0509,-0.0509,-0.0534,-0.0532,-0.0541,-0.0541,-0.0628,-0.0629,-0.0652,0,0,0,-0.0415,-0.0419,-0.0429,-0.043,-0.0455,-0.048,-0.0453,-0.0506,-0.0512,-0.0532,-0.0541,-0.0542,-0.0628,-0.0628,-0.065,-0.0642,0,0,0,-0.0412,-0.0418,-0.0422,-0.0429,-0.0442,-0.0479,-0.0483,-0.0507,-0.0511,-0.054,-0.0542,-0.0627,-0.0628,-0.0649,-0.064,-0.0621,0,0,0,-0.0412,-0.0425,-0.0422,-0.0443,-0.0442,-0.0487,-0.0482,-0.052,-0.0547,-0.0541,-0.0628,-0.0629,-0.0648,-0.0639,-0.0621,-0.0519,0,0,0,-0.0426,-0.0427,-0.0439,-0.0437,-0.0479,-0.0482,-0.0536,-0.0563,-0.0569,-0.0611,-0.0613,-0.0651,-0.064,-0.0621,-0.0581,0,0,0,0,-0.0443,-0.0454,-0.0466,-0.049,-0.0516,-0.0548,-0.0579,-0.0591,-0.0628,-0.0587,-0.0665,-0.0658,-0.0645,-0.0585,-0.0634,-0.0634,-0.0633,-0.0633,-0.0633,-0.0474,-0.0484,-0.0513,-0.0535,-0.0566,-0.0605,-0.0627,-0.0652,-0.0665,-0.0683,-0.0688,-0.0704,-0.0645,-0.0711,-0.0711,-0.0711,-0.0711,-0.0711,-0.0711,-0.05,-0.0515,-0.054,-0.0571,-0.0607,-0.0654,-0.0687,-0.0694,-0.0716,-0.0724,-0.0711,-0.0629,-0.0714,-0.0713,-0.0713,-0.0712,-0.0712,-0.0712,-0.0712,-0.0515,-0.0521,-0.0544,-0.0586,-0.063,-0.0669,-0.0672,-0.0703,-0.0723,-0.0725,-0.064,-0.0705,-0.0688,-0.0717,-0.0716,-0.0716,-0.0716,-0.0716,-0.0716,-0.0515,-0.0536,-0.0555,-0.0594,-0.0618,-0.0639,-0.066,-0.0651,-0.0675,-0.0641,-0.0722,-0.0704,-0.0704,-0.0688,-0.0715,-0.0715,-0.0715,-0.0715,-0.0715,-0.0516,-0.0525,-0.0545,-0.0566,-0.0597,-0.0597,-0.0614,-0.0564,-0.0545,-0.0521,-0.0587,-0.0594,-0.0564,-0.0567,-0.0544,-0.053,-0.0528,-0.0527,0,-0.0511,-0.0517,-0.0534,-0.0549,-0.0553,-0.0571,-0.0499,-0.0484,-0.0498,-0.0497,-0.0578,-0.0658,-0.0661,-0.0633,-0.0633,-0.0609,0,0,0,-0.0502,-0.0509,-0.0513,-0.0533,-0.0537,-0.049,-0.0479,-0.0449,-0.0499,-0.0426,-0.0495,-0.0504,-0.0614,-0.071,-0.068,-0.068,-0.0651,0,0]}]]